SCP
-0 -0 -0 0 0 0 -0 0 0 0 0 0 0 0 0 0 0 0 0 0 0 0
0 0 -0 0 0 0 -0 -0 -0 -0 0 -0 0 0 0 0 0 0 0 0 0 0
0 0 -0 0 0 0 0 0 0 -0 0 0 0 0 0 0 0 0 0 0 0 0
0 0 0 0 0 0 0 0 0 0 0 1 0 0 0 0 0 0 0 0 0 0
0 0 0 0 0 0 0 0 0 1 0 0 0 0 0 0 0 0 0 0 0 0
0 0 0 0 0 0 0 0 0 0 0 0 0 0 0 0 0 0 0 0 0 0
0 0 0 0 0 0 0 0 0 0 0 0 0 0 0 0 0 0 0 0 0 0
1 1 0 0 0 0 0 0 0 0 0 0 0 0 1 1 0 0 0 0 0 0
0 0 0 0 0 0 0 0 0 0 0 0 0 0 0 0 0 0 0 0 0 0
0 0 0 0 0 0 0 0 0 0 0 0 0 0 0 0 0 0 0 0 0 0
0 0 0 0 0 0 0 0 0 0 0 0 0 0 0 0 0 0 0 0 0 0
0 0 0 0 0 0 0 0 0 -0 0 0 0 0 0 0 0 0 0 0 0 0
0 0 0 0 0 0 0 0 0 -0 0 0 0 0 0 0 0 0 0 0 0 0
0 0 0 0 0 0 0 0 0 0 0 0 0 0 0 0 0 0 0 0 0 0
Wind_Speed_500mb
70 60 56 59 51 57 55 42 38 37 32 28 28 34 36 32 31 28 30 28 29 24
74 68 65 64 60 50 48 48 40 39 37 40 35 32 33 33 30 26 24 24 22 22
73 72 69 68 65 54 49 49 47 43 47 51 42 34 35 33 29 29 30 29 27 28
66 74 76 73 76 66 59 58 56 57 48 54 51 41 37 33 34 33 37 33 33 29
61 70 73 81 79 78 70 62 58 58 45 53 54 44 44 40 39 38 34 36 40 33
64 64 68 69 77 81 72 69 61 55 52 52 53 48 44 43 43 38 37 36 35 35
68 63 57 59 65 70 81 72 70 65 60 56 52 52 50 45 49 47 44 44 43 37
65 60 57 63 56 49 63 72 75 73 67 60 62 57 55 50 48 45 38 37 36 39
68 70 62 62 57 60 54 49 63 68 68 65 59 58 58 52 49 47 45 44 41 40
67 71 67 66 63 63 51 52 60 65 66 66 63 61 58 54 52 51 50 48 41 42
46 54 57 53 54 71 70 62 72 67 70 64 62 62 62 56 54 53 56 46 45 48
16 24 29 39 48 58 57 62 72 76 58 55 62 63 61 59 58 58 62 59 54 52
4 10 17 28 41 22 37 30 33 46 60 60 66 67 62 59 56 57 56 61 67 65
7 8 8 10 34 36 22 18 18 21 23 40 47 43 44 50 51 52 52 62 66 65
Wind_Direction_500mb
218 216 217 219 224 226 226 232 237 235 223 216 220 224 228 234 236 237 237 238 249 260
220 219 221 220 226 224 225 229 235 231 229 225 226 223 225 231 231 221 212 211 223 225
223 226 224 222 225 223 218 228 233 235 238 233 227 232 228 226 221 222 224 225 225 229
226 228 228 226 225 228 225 227 235 243 246 225 224 220 221 225 231 243 239 240 241 240
228 229 228 227 224 227 226 224 234 239 240 226 225 225 227 229 240 244 251 246 251 244
226 231 230 231 228 225 228 228 225 226 227 230 224 229 228 242 237 243 253 250 253 241
228 230 231 231 230 230 228 232 229 225 227 228 230 226 246 245 243 250 262 256 250 241
240 236 236 239 230 231 229 235 237 235 236 235 238 241 239 248 252 252 250 248 248 245
234 239 231 231 234 233 231 238 230 237 244 243 244 250 250 248 252 249 247 243 245 250
230 233 230 242 233 228 239 232 238 240 238 245 246 248 245 247 245 244 240 244 250 258
231 239 243 235 237 229 237 247 243 254 240 240 246 242 242 245 243 242 242 251 258 257
212 235 243 240 233 227 229 239 244 242 249 242 245 246 245 243 242 244 244 243 248 252
67 243 236 233 190 219 222 287 267 237 255 238 245 245 242 243 244 244 247 247 247 249
78 91 65 215 230 236 232 251 286 199 204 247 240 246 253 240 241 251 255 247 244 244
Wind_Speed_850mb
70 60 56 59 51 57 55 42 38 37 32 28 28 34 36 32 31 28 30 28 29 24
74 68 65 64 60 50 48 48 40 39 37 40 35 32 33 33 30 26 24 24 22 22
73 72 69 68 65 54 49 49 47 43 47 51 42 34 35 33 29 29 30 29 27 28
66 74 76 73 76 66 59 58 56 57 48 54 51 41 37 33 34 33 37 33 33 29
61 70 73 81 79 78 70 62 58 58 45 53 54 44 44 40 39 38 34 36 40 33
64 64 68 69 77 81 72 69 61 55 52 52 53 48 44 43 43 38 37 36 35 35
68 63 57 59 65 70 81 72 70 65 60 56 52 52 50 45 49 47 44 44 43 37
65 60 57 63 56 49 63 72 75 73 67 60 62 57 55 50 48 45 38 37 36 39
68 70 62 62 57 60 54 49 63 68 68 65 59 58 58 52 49 47 45 44 41 40
67 71 67 66 63 63 51 52 60 65 66 66 63 61 58 54 52 51 50 48 41 42
46 54 57 53 54 71 70 62 72 67 70 64 62 62 62 56 54 53 56 46 45 48
16 24 29 39 48 58 57 62 72 76 58 55 62 63 61 59 58 58 62 59 54 52
4 10 17 28 41 22 37 30 33 46 60 60 66 67 62 59 56 57 56 61 67 65
7 8 8 10 34 36 22 18 18 21 23 40 47 43 44 50 51 52 52 62 66 65
Wind_Direction_850mb
218 216 217 219 224 226 226 232 237 235 223 216 220 224 228 234 236 237 237 238 249 260
220 219 221 220 226 224 225 229 235 231 229 225 226 223 225 231 231 221 212 211 223 225
223 226 224 222 225 223 218 228 233 235 238 233 227 232 228 226 221 222 224 225 225 229
226 228 228 226 225 228 225 227 235 243 246 225 224 220 221 225 231 243 239 240 241 240
228 229 228 227 224 227 226 224 234 239 240 226 225 225 227 229 240 244 251 246 251 244
226 231 230 231 228 225 228 228 225 226 227 230 224 229 228 242 237 243 253 250 253 241
228 230 231 231 230 230 228 232 229 225 227 228 230 226 246 245 243 250 262 256 250 241
240 236 236 239 230 231 229 235 237 235 236 235 238 241 239 248 252 252 250 248 248 245
234 239 231 231 234 233 231 238 230 237 244 243 244 250 250 248 252 249 247 243 245 250
230 233 230 242 233 228 239 232 238 240 238 245 246 248 245 247 245 244 240 244 250 258
231 239 243 235 237 229 237 247 243 254 240 240 246 242 242 245 243 242 242 251 258 257
212 235 243 240 233 227 229 239 244 242 249 242 245 246 245 243 242 244 244 243 248 252
67 243 236 233 190 219 222 287 267 237 255 238 245 245 242 243 244 244 247 247 247 249
78 91 65 215 230 236 232 251 286 199 204 247 240 246 253 240 241 251 255 247 244 244